sat.trackr.live / text

‹ back to catalog

STARLINK-35226

NORAD 65492 · 2025-198A

PAYLOAD ACTIVE UNKNOWN

§ Identity

Operator
Country
US
Launch date
2025-09-05
Launch site
AFETR
Launch vehicle
Mass (kg)
RCS (m²)

Purposes: comms

External: N2YO · Heavens-Above · Gunter

§ Orbital elements

Epoch: 2026-09-20T21:49:04.380672Z

Period
93.85 min
Inclination
53.1574°
Eccentricity
0.0000340
Mean motion
15.34421751 rev/d
Perigee alt
462.4 km
Apogee alt
462.9 km
Semi-major
6,840.8 km
B*
5.2065e-4
RAAN
79.6429°
Arg perigee
209.6308°
Mean anomaly
150.4676°
Rev number
5,857

§ Raw data

STARLINK-352261 65492U 25198A   26263.90907848  .00017268  00000+0  52065-3 0  99992 65492  53.1574  79.6429 0000340 209.6308 150.4676 15.34421751 58572

JSON: /api/v1/satellites/65492 · /tle

For live sub-satellite position, see the globe view (requires WebGL).

§ Visibility from observer

Set your observer location to see the next 7 days of passes ≥ 10°. The values pass through the URL so the page stays shareable.

No JS? Fill the form by hand. The geolocation button needs JavaScript.